| time (UTC) | temp C | wind direction | speed KPH | gust KPH | rain 1hr cm | rain 24hr cm | rain mn cm | humidity % | barometer mb |
| 20260906080034 | 19 | 55 | 4.8 | 6.4 | 0.00 | 0.03 | 0.00 | 93 | 1013.3 |
| 20260906074530 | 19 | 55 | 4.8 | 8.0 | 0.00 | 0.03 | 0.00 | 92 | 1013.1 |
| 20260906073030 | 19 | 49 | 4.8 | 11.3 | 0.00 | 0.03 | 0.00 | 92 | 1013.1 |
| 20260906071532 | 19 | 63 | 8.0 | 16.1 | 0.00 | 0.03 | 0.00 | 92 | 1013.0 |
| 20260906070028 | 20 | 67 | 6.4 | 14.5 | 0.00 | 0.03 | 0.00 | 92 | 1012.9 |
| 20260906064529 | 20 | 67 | 8.0 | 14.5 | 0.00 | 0.03 | 0.00 | 93 | 1013.1 |
| 20260906063026 | 19 | 53 | 6.4 | 9.7 | 0.00 | 0.03 | 0.00 | 93 | 1013.1 |
| 20260906061525 | 19 | 53 | 6.4 | 8.0 | 0.00 | 0.03 | 0.00 | 93 | 1013.1 |
| 20260906060026 | 20 | 46 | 4.8 | 9.7 | 0.00 | 0.03 | 0.00 | 93 | 1013.1 |
| 20260906054523 | 20 | 52 | 4.8 | 8.0 | 0.00 | 0.03 | 0.00 | 92 | 1012.9 |
| 20260906053023 | 20 | 59 | 6.4 | 9.7 | 0.00 | 0.03 | 0.00 | 92 | 1012.8 |
| 20260906051518 | 20 | 76 | 4.8 | 11.3 | 0.00 | 0.03 | 0.00 | 90 | 1012.8 |
| 20260906050016 | 21 | 105 | 8.0 | 14.5 | 0.00 | 0.03 | 0.00 | 90 | 1012.5 |
| 20260906044510 | 21 | 93 | 9.7 | 17.7 | 0.00 | 0.03 | 0.00 | 91 | 1012.4 |
| 20260906043010 | 21 | 71 | 8.0 | 19.3 | 0.00 | 0.03 | 0.00 | 90 | 1012.3 |
| 20260906041504 | 21 | 94 | 12.9 | 17.7 | 0.00 | 0.03 | 0.00 | 90 | 1012.1 |
| 20260906040002 | 21 | 103 | 9.7 | 20.9 | 0.00 | 0.03 | 0.00 | 90 | 1012.1 |
| 20260906034501 | 22 | 107 | 17.7 | 25.7 | 0.00 | 0.03 | 0.03 | 90 | 1012.3 |
| 20260906033001 | 22 | 69 | 17.7 | 30.6 | 0.00 | 0.03 | 0.03 | 90 | 1012.3 |
| 20260906031627 | 22 | 93 | 9.7 | 20.9 | 0.00 | 0.03 | 0.03 | 91 | 1012.3 |
| 20260906030058 | 22 | 77 | 16.1 | 25.7 | 0.00 | 0.03 | 0.03 | 90 | 1012.0 |
| 20260906024559 | 23 | 73 | 11.3 | 24.1 | 0.00 | 0.03 | 0.03 | 89 | 1011.8 |
| 20260906023153 | 23 | 90 | 9.7 | 25.7 | 0.00 | 0.03 | 0.03 | 89 | 1011.6 |
| 20260906021554 | 23 | 74 | 14.5 | 25.7 | 0.00 | 0.03 | 0.03 | 91 | 1011.4 |
| 20260906020058 | 23 | 55 | 16.1 | 24.1 | 0.00 | 0.03 | 0.03 | 92 | 1011.3 |
| 20260906014552 | 23 | 80 | 6.4 | 12.9 | 0.03 | 0.03 | 0.03 | 91 | 1011.0 |
| 20260906013051 | 24 | 74 | 6.4 | 19.3 | 0.03 | 0.03 | 0.03 | 90 | 1010.9 |
| 20260906011553 | 24 | 86 | 14.5 | 25.7 | 0.03 | 0.03 | 0.03 | 90 | 1010.6 |
| 20260906010050 | 25 | 71 | 17.7 | 24.1 | 0.03 | 0.03 | 0.03 | 88 | 1010.5 |
| 20260906004556 | 25 | 64 | 9.7 | 19.3 | 0.00 | 0.00 | 0.00 | 89 | 1010.3 |
| 20260906003052 | 25 | 68 | 9.7 | 17.7 | 0.00 | 0.00 | 0.00 | 87 | 1010.0 |
| 20260906001549 | 25 | 44 | 8.0 | 16.1 | 0.00 | 0.00 | 0.00 | 85 | 1009.8 |
| 20260906000055 | 26 | 26 | 11.3 | 19.3 | 0.00 | 0.00 | 0.00 | 81 | 1009.9 |
| 20260905234547 | 26 | 16 | 8.0 | 14.5 | 0.00 | 0.00 | 0.00 | 81 | 1009.9 |
| 20260905233050 | 27 | 338 | 16.1 | 25.7 | 0.00 | 0.00 | 0.00 | 78 | 1009.6 |
| 20260905231548 | 27 | 355 | 14.5 | 24.1 | 0.00 | 0.00 | 0.00 | 78 | 1009.4 |
| 20260905230045 | 28 | 360 | 12.9 | 19.3 | 0.00 | 0.00 | 0.00 | 79 | 1009.3 |
| 20260905224543 | 27 | 355 | 4.8 | 9.7 | 0.00 | 0.00 | 0.00 | 81 | 1009.3 |
| 20260905223042 | 28 | 355 | 8.0 | 14.5 | 0.00 | 0.00 | 0.00 | 79 | 1009.3 |
| 20260905221558 | 28 | 22 | 9.7 | 17.7 | 0.00 | 0.00 | 0.00 | 78 | 1009.2 |
| 20260905220041 | 28 | 19 | 12.9 | 20.9 | 0.00 | 0.00 | 0.00 | 76 | 1009.0 |
| 20260905214539 | 29 | 18 | 14.5 | 20.9 | 0.00 | 0.00 | 0.00 | 76 | 1008.9 |
| 20260905213039 | 29 | 26 | 11.3 | 17.7 | 0.00 | 0.00 | 0.00 | 77 | 1008.7 |
| 20260905211537 | 28 | 9 | 14.5 | 20.9 | 0.00 | 0.00 | 0.00 | 77 | 1008.6 |
| 20260905210035 | 28 | 36 | 14.5 | 25.7 | 0.00 | 0.00 | 0.00 | 78 | 1008.8 |
| 20260905204538 | 29 | 32 | 16.1 | 27.4 | 0.00 | 0.00 | 0.00 | 78 | 1008.8 |
| 20260905203036 | 29 | 355 | 12.9 | 20.9 | 0.00 | 0.00 | 0.00 | 78 | 1008.8 |
| 20260905201533 | 28 | 17 | 11.3 | 22.5 | 0.00 | 0.00 | 0.00 | 80 | 1009.0 |
| 20260905200032 | 30 | 17 | 14.5 | 20.9 | 0.00 | 0.00 | 0.00 | 73 | 1009.2 |
| 20260905194529 | 30 | 321 | 9.7 | 14.5 | 0.00 | 0.00 | 0.00 | 72 | 1009.0 |
| 20260905193034 | 30 | 300 | 8.0 | 16.1 | 0.00 | 0.00 | 0.00 | 72 | 1009.3 |
| 20260905191529 | 29 | 298 | 9.7 | 16.1 | 0.00 | 0.00 | 0.00 | 73 | 1009.4 |
| 20260905190030 | 30 | 324 | 8.0 | 19.3 | 0.00 | 0.00 | 0.00 | 71 | 1009.7 |
| 20260905184520 | 31 | 300 | 3.2 | 14.5 | 0.00 | 0.00 | 0.00 | 69 | 1009.8 |
| 20260905183013 | 30 | 317 | 8.0 | 14.5 | 0.00 | 0.00 | 0.00 | 70 | 1010.0 |
| 20260905181507 | 30 | 302 | 9.7 | 17.7 | 0.00 | 0.00 | 0.00 | 67 | 1010.1 |
| 20260905180008 | 30 | 214 | 3.2 | 12.9 | 0.00 | 0.00 | 0.00 | 70 | 1010.2 |
| 20260905174502 | 29 | 327 | 8.0 | 17.7 | 0.00 | 0.00 | 0.00 | 69 | 1010.3 |
| 20260905173119 | 28 | 176 | 6.4 | 17.7 | 0.00 | 0.00 | 0.00 | 72 | 1010.4 |
| 20260905171557 | 28 | 205 | 6.4 | 16.1 | 0.00 | 0.00 | 0.00 | 71 | 1010.6 |
| 20260905170053 | 28 | 207 | 9.7 | 19.3 | 0.00 | 0.00 | 0.00 | 72 | 1010.8 |
| 20260905164555 | 28 | 170 | 8.0 | 19.3 | 0.00 | 0.00 | 0.00 | 74 | 1011.0 |
| 20260905163049 | 27 | 242 | 8.0 | 16.1 | 0.00 | 0.00 | 0.00 | 73 | 1011.1 |
| 20260905161547 | 27 | 223 | 11.3 | 17.7 | 0.00 | 0.00 | 0.00 | 74 | 1011.2 |
| 20260905160055 | 27 | 251 | 6.4 | 14.5 | 0.00 | 0.00 | 0.00 | 74 | 1011.2 |
| 20260905154549 | 27 | 213 | 8.0 | 17.7 | 0.00 | 0.00 | 0.00 | 75 | 1011.1 |
| 20260905153040 | 26 | 209 | 6.4 | 14.5 | 0.00 | 0.00 | 0.00 | 77 | 1011.1 |
| 20260905151539 | 25 | 207 | 12.9 | 24.1 | 0.00 | 0.00 | 0.00 | 79 | 1011.1 |
| 20260905150041 | 25 | 201 | 4.8 | 16.1 | 0.00 | 0.00 | 0.00 | 79 | 1011.2 |
| 20260905144535 | 25 | 191 | 6.4 | 14.5 | 0.00 | 0.00 | 0.00 | 80 | 1011.4 |
| 20260905143032 | 24 | 213 | 9.7 | 16.1 | 0.00 | 0.00 | 0.00 | 82 | 1011.0 |
| 20260905141530 | 23 | 207 | 9.7 | 25.7 | 0.00 | 0.00 | 0.00 | 83 | 1011.0 |
| 20260905140028 | 23 | 196 | 12.9 | 17.7 | 0.00 | 0.00 | 0.00 | 84 | 1010.8 |
| 20260905134528 | 23 | 195 | 9.7 | 20.9 | 0.00 | 0.00 | 0.00 | 83 | 1010.7 |
| 20260905133027 | 23 | 192 | 12.9 | 20.9 | 0.00 | 0.00 | 0.00 | 85 | 1010.5 |
| 20260905131524 | 23 | 195 | 14.5 | 20.9 | 0.00 | 0.00 | 0.00 | 85 | 1010.5 |
| 20260905130021 | 22 | 191 | 16.1 | 22.5 | 0.00 | 0.00 | 0.00 | 87 | 1010.8 |
| 20260905124518 | 22 | 186 | 12.9 | 22.5 | 0.00 | 0.00 | 0.00 | 89 | 1010.8 |
| 20260905123013 | 21 | 178 | 11.3 | 20.9 | 0.00 | 0.00 | 0.00 | 91 | 1010.7 |
| 20260905121509 | 21 | 178 | 11.3 | 19.3 | 0.00 | 0.00 | 0.00 | 92 | 1010.8 |
| 20260905120019 | 21 | 175 | 9.7 | 16.1 | 0.00 | 0.00 | 0.00 | 92 | 1010.9 |
| 20260905114504 | 21 | 161 | 8.0 | 16.1 | 0.00 | 0.00 | 0.00 | 91 | 1010.9 |
| 20260905113001 | 21 | 158 | 8.0 | 19.3 | 0.00 | 0.00 | 0.00 | 91 | 1010.8 |
| 20260905111653 | 21 | 138 | 12.9 | 27.4 | 0.00 | 0.00 | 0.00 | 90 | 1010.5 |
| 20260905110056 | 21 | 152 | 12.9 | 22.5 | 0.00 | 0.00 | 0.00 | 90 | 1010.5 |
| 20260905104553 | 21 | 185 | 16.1 | 30.6 | 0.00 | 0.00 | 0.00 | 89 | 1010.4 |
| 20260905103053 | 22 | 140 | 17.7 | 27.4 | 0.00 | 0.00 | 0.00 | 90 | 1010.4 |
| 20260905101545 | 23 | 130 | 22.5 | 33.8 | 0.00 | 0.00 | 0.00 | 92 | 1010.4 |
| 20260905100043 | 24 | 117 | 4.8 | 14.5 | 0.00 | 0.00 | 0.00 | 95 | 1010.3 |
| 20260905094543 | 23 | 88 | 9.7 | 17.7 | 0.00 | 0.00 | 0.00 | 95 | 1010.2 |
| 20260905093042 | 23 | 215 | 0.0 | 3.2 | 0.00 | 0.00 | 0.00 | 93 | 1009.8 |
| 20260905091539 | 23 | 215 | 4.8 | 8.0 | 0.00 | 0.00 | 0.00 | 94 | 1009.7 |
| 20260905090039 | 24 | 225 | 1.6 | 4.8 | 0.00 | 0.00 | 0.00 | 92 | 1009.7 |
| 20260905084535 | 24 | 285 | 3.2 | 4.8 | 0.00 | 0.00 | 0.00 | 91 | 1009.7 |
| 20260905083033 | 24 | 286 | 0.0 | 1.6 | 0.00 | 0.00 | 0.00 | 91 | 1009.6 |
| 20260905081533 | 25 | 286 | 0.0 | 3.2 | 0.00 | 0.00 | 0.00 | 91 | 1009.5 |